Flag for United Kingdom Weather past 2 weeks in Dundee, Scotland, United Kingdom

Now
68 °F

Passing clouds.


Feels Like: 68 °F
Forecast: 52 / 74 °F
Wind: 9 mph from East

Location: Dundee / Riverside

Current Time: Jul 23, 2014 at 1:12:57 AM

Latest Report: Jul 22, 2014 at 5:50 PM


Visibility: N/A

Pressure: 30.27 "Hg

Humidity: 73%

Dew point: 59 °F

Location of DundeeLocation

Historic Weather in Dundee — Graph

°F

Dundee temperature yesterday

Maximum temperature yesterday: 72 °F (at 2:50 PM)
Minimum temperature yesterday: 59 °F (at 7:20 AM)
Average temperature yesterday: 66 °F

Past Weeks' High & Low Weather Summary

 TemperatureHumidityPressure
High79 °F (Jul 21, 3:50 PM)100% (Jul 14, 5:20 PM)30.27 "Hg (Jul 14, 5:20 PM)
Low55 °F (Jul 8, 6:20 AM)38% (Jul 9, 3:50 PM)29.62 "Hg (Jul 14, 7:50 PM)
Average64 °F78%29.99 "Hg
* Reported Jul 7 5:20 PM — Jul 22 5:20 PM, Dundee, Weather by CustomWeather, © 2014

Note: Actual official high and low records may vary slightly from our data, if they occured in-between our weather recording intervals... More about our weather records

Advertising

Dundee weather history for previous 24 hours

 ConditionsComfort  
Time TempWeatherWind HumidityBarometerVisibility
5:20 PM
Jul 22
72 °FPassing clouds.10 mph69%30.27 "HgN/A
4:50 PM70 °FPassing clouds.10 mph73%30.27 "HgN/A
4:20 PM72 °FPassing clouds.9 mph69%30.27 "HgN/A
3:50 PM72 °FPassing clouds.9 mph73%30.27 "HgN/A
3:20 PM72 °FPassing clouds.9 mph69%30.27 "HgN/A
2:50 PM72 °FPassing clouds.8 mph69%30.27 "HgN/A
2:20 PM68 °FPassing clouds.10 mph73%30.27 "HgN/A
1:50 PM70 °FPassing clouds.9 mph73%30.27 "HgN/A
1:20 PM70 °FPassing clouds.9 mph73%30.27 "HgN/A
12:50 PM70 °FPassing clouds.7 mph73%30.27 "HgN/A
12:20 PM66 °FPassing clouds.7 mph83%30.27 "HgN/A
11:50 AM68 °FPassing clouds.5 mph83%30.27 "HgN/A
11:20 AM66 °FPassing clouds.3 mph83%30.27 "HgN/A
10:50 AM64 °FPassing clouds.3 mph88%30.27 "Hg6 mi
10:20 AM64 °FPartly sunny.5 mph88%30.27 "Hg4 mi
9:50 AM61 °FPartly sunny.5 mph100%30.24 "Hg4 mi
9:20 AM61 °FPartly sunny.3 mph94%30.24 "Hg4 mi
8:50 AM61 °FPartly sunny.3 mph88%30.24 "Hg4 mi
8:20 AM61 °FPartly sunny.2 mph94%30.24 "Hg4 mi
7:50 AM61 °FPartly sunny.1 mph94%30.24 "Hg3 mi
7:20 AM59 °FPartly sunny.3 mph88%30.24 "Hg4 mi
6:50 AM61 °FPartly sunny.3 mph88%30.21 "Hg4 mi
6:20 AM61 °FPartly sunny.1 mph94%30.21 "Hg6 mi
Weather by CustomWeather, © 2014

See weather overviewHow to use our weather pages